Simultaneous Nadir Overpasses (SNOs) Predictions

Prediction of SNOs between GOES-16 and NPP Satellite Orbit:

Table of predicted SNOs for the next 14.0 days since TLE Epoch: 5/19/2017
Index Date Time (GOES-16) GOES-16 Lat,Lon NPP Lat,Lon Distance(km) Time Diff (sec)
1 05/20/2017 19:07:28 0.01, -89.49 0.95, -85.42 464.35 80
2 05/22/2017 07:29:15 -0.01, -89.50 0.27, -90.68 134.86 80
3 05/23/2017 07:07:51 -0.01, -89.50 -0.75, -86.15 381.49 80
4 05/24/2017 19:29:47 0.01, -89.49 -0.43, -91.46 224.24 80
5 05/25/2017 19:13:43 0.02, -89.49 0.59, -86.93 292.27 80
6 05/27/2017 07:35:31 -0.02, -89.51 0.56, -92.20 306.58 80
7 05/28/2017 07:14:07 -0.02, -89.51 -0.46, -87.67 209.91 80
8 05/29/2017 19:36:02 0.03, -89.50 -0.78, -92.96 395.84 80
9 05/30/2017 19:19:57 0.03, -89.50 0.25, -88.43 121.23 80
10 06/01/2017 07:41:46 -0.03, -89.53 0.90, -93.71 476.26 80
11 06/02/2017 07:20:21 -0.03, -89.54 -0.12, -89.18 41.04 80




NCC Satellite Simultaneous Nadir Overpasses (SNOs) Prediction Service
